Home   Weather   Fredrikstad   Past weeks

Flag for Norway Past Weather in Fredrikstad, Norway — Yesterday and Last 2 Weeks

Now
32 °F

Sunny.


Feels Like: 32 °F
Forecast: 25 / 34 °F
Wind: 1 mph from North

Location: Rygge

Current Time: Jan 17, 2017 at 4:11:51 pm

Latest Report: Jan 17, 2017 at 3:20 pm


Visibility: 10 mi

Pressure: 30.36 "Hg

Humidity: 87%

Dew Point: 28 °F

Location of FredrikstadLocation

Past Weather in Fredrikstad — Graph

°F

Fredrikstad Temperature Yesterday

Maximum temperature yesterday: 30 °F (at 2:50 pm)
Minimum temperature yesterday: 16 °F (at 2:20 am)
Average temperature yesterday: 21 °F

High & Low Weather Summary for the Past Weeks

 TemperatureHumidityPressure
High43 °F (Jan 9, 4:20 pm)100% (Jan 6, 4:20 pm)30.66 "Hg (Jan 6, 4:20 pm)
Low10 °F (Jan 5, 6:50 am)43% (Jan 4, 11:20 am)28.50 "Hg (Jan 11, 2:50 pm)
Average30 °F82%29.79 "Hg
* Reported Jan 2 2:20 pm — Jan 17 2:50 pm, Fredrikstad, Weather by CustomWeather, © 2017

Note: Actual official high and low records may vary slightly from our data, if they occured in-between our weather recording intervals... More about our weather records

Advertising

Fredrikstad Weather History for the Previous 24 Hours

Scroll right to see more
 ConditionsComfort  
Time TempWeatherWind HumidityBarometerVisibility
2:50 pm
Tue, Jan 17
32 °FSunny.1 mph87%30.36 "Hg10 mi
2:20 pm32 °FSunny.2 mph80%30.39 "Hg10 mi
1:50 pm32 °FSunny.2 mph80%30.39 "Hg10 mi
1:20 pm30 °FSunny.3 mph86%30.39 "Hg10 mi
12:50 pm30 °FPassing clouds.3 mph86%30.39 "HgN/A
12:20 pm30 °FPassing clouds.3 mph93%30.39 "HgN/A
11:50 am30 °FSunny.3 mph86%30.39 "Hg10 mi
11:20 am30 °FPassing clouds.2 mph86%30.39 "HgN/A
10:50 am30 °FPassing clouds.3 mph86%30.39 "HgN/A
10:20 am28 °FPassing clouds.3 mph93%30.39 "HgN/A
9:50 am28 °FScattered clouds.3 mph93%30.42 "HgN/A
9:20 am28 °FScattered clouds.6 mph93%30.39 "HgN/A
8:50 am28 °FPartly cloudy.5 mph86%30.39 "HgN/A
8:20 am28 °FPassing clouds.7 mph86%30.39 "HgN/A
7:50 am28 °FSleet. Passing clouds.5 mph86%30.39 "HgN/A
7:20 am28 °FLight snow. Overcast.6 mph80%30.39 "Hg5 mi
6:50 am30 °FPartly cloudy.6 mph59%30.39 "HgN/A
6:20 am30 °FPartly cloudy.6 mph64%30.39 "HgN/A
5:50 am30 °FPassing clouds.7 mph64%30.39 "HgN/A
5:20 am32 °FPartly cloudy.7 mph60%30.39 "HgN/A
4:50 am32 °FOvercast.6 mph64%30.39 "HgN/A
4:20 am32 °FPassing clouds.7 mph69%30.39 "HgN/A
3:50 am32 °FOvercast.7 mph69%30.42 "HgN/A
3:20 am28 °FOvercast.3 mph86%30.42 "HgN/A
2:50 am25 °FOvercast.5 mph93%30.42 "HgN/A
2:20 am23 °FMostly cloudy.5 mph93%30.42 "HgN/A
1:50 am25 °FOvercast.5 mph86%30.42 "HgN/A
1:20 am23 °FPassing clouds.6 mph93%30.42 "HgN/A
12:50 am23 °FOvercast.5 mph86%30.42 "HgN/A
12:20 am21 °FPassing clouds.6 mph93%30.45 "HgN/A
11:50 pm
Mon, Jan 16
19 °FOvercast.6 mph93%30.45 "HgN/A
11:20 pm18 °FPassing clouds.5 mph93%30.45 "HgN/A
10:50 pm19 °FPassing clouds.3 mph86%30.45 "HgN/A
10:20 pm18 °FPassing clouds.5 mph93%30.45 "HgN/A
9:50 pm19 °FOvercast.3 mph86%30.45 "HgN/A
9:20 pm18 °FOvercast.3 mph100%30.45 "HgN/A
8:50 pm18 °FOvercast.2 mph93%30.45 "HgN/A
8:20 pm18 °FPartly cloudy.3 mph86%30.42 "HgN/A
7:50 pm19 °FClear.1 mph86%30.42 "Hg10 mi
7:20 pm21 °FClear.No wind86%30.42 "Hg10 mi
6:50 pm21 °FClear.2 mph80%30.42 "Hg10 mi
6:20 pm21 °FClear.2 mph80%30.42 "Hg10 mi
5:50 pm25 °FClear.1 mph69%30.39 "Hg10 mi
5:20 pm27 °FClear.2 mph69%30.42 "Hg10 mi
4:50 pm27 °FClear.2 mph69%30.39 "Hg10 mi
4:20 pm27 °FClear.2 mph64%30.39 "Hg10 mi
Weather by CustomWeather, © 2017

See weather overviewHow to use our weather pages